Location: Blangy-Tronville
(49.8790°N, 2.4226°E)
Time: 21:00:05
(UTC+00:00)

Cosmos 1140 Rocket - Pass Details

Date: 18 November 2025
Orbit: 740 x 761 km, 74.1° (Epoch: 05 December)

Event Time Altitude Azimuth Distance (km) Brightness Sun altitude
Rises 16:51:53 0° 200° (SSW) 3,197 7.4 -8.0°
Reaches altitude 10° 16:54:15 10° 200° (SSW) 2,273 6.6 -8.3°
Maximum altitude 16:59:24 85° 113° (ESE) 760 3.5 -9.1°
Drops below altitude 10° 17:04:35 10° 25° (NNE) 2,276 5.6 -9.9°
Enters shadow 17:06:30 - 25° (NNE) 3,028 6.2 -10.2°
